Location: Unspecified
(48.5670°N, 0.0000°E)
Time: 06:53:03
(UTC+00:00)

Transit 4A - Pass Details

Date: 30 August 2019
Orbit: 865 x 980 km, 66.8° (Epoch: 16 September)

Event Time Altitude Azimuth Distance (km) Brightness Sun altitude
Rises 19:08:07 0° 273° (W) 3,681 12.9 -4.2°
Reaches altitude 10° 19:11:28 10° 290° (WNW) 2,730 12.3 -4.8°
Maximum altitude 19:16:03 20° 336° (NNW) 2,075 10.4 -5.5°
Drops below altitude 10° 19:20:37 10° 23° (NNE) 2,700 10.3 -6.2°
Sets 19:23:55 0° 40° (NE) 3,628 10.8 -6.7°
